GFSMA_prec_kuchsnow_297.txt.gz
Snowfall_Accumulation
0.0 0.0 0.0 0.0 0.0 0.0 0.0 0.0 0.0 0.0 0.0 0.0 0.0 0.0 0.0 0.0 0.0 0.0 0.0 0.0 0.0 0.0 0.0 0.0 0.0 0.0 0.0 0.0 0.0 0.0 0.0 0.0 0.0 0.0 0.0 0.0 0.0 0.0 0.0 0.0 0.0 0.0 0.0
0.0 0.0 0.0 0.0 0.0 0.0 0.0 0.0 0.0 0.0 0.0 0.0 0.0 0.0 0.0 0.0 0.0 0.0 0.0 0.0 0.0 0.0 0.0 0.0 0.0 0.0 0.0 0.0 0.0 0.0 0.0 0.0 0.0 0.0 0.0 0.0 0.0 0.0 0.0 0.0 0.0 0.0 0.0
0.0 0.0 0.0 0.0 0.0 0.0 0.0 0.0 0.0 0.0 0.0 0.0 0.0 0.0 0.0 0.0 0.0 0.0 0.0 0.0 0.0 0.0 0.0 0.0 0.0 0.0 0.0 0.0 0.0 0.0 0.0 0.0 0.0 0.0 0.0 0.0 0.0 0.0 0.0 0.0 0.0 0.0 0.0
0.0 0.0 0.0 0.0 0.0 0.0 0.0 0.0 0.0 0.0 0.0 0.0 0.0 0.0 0.0 0.0 0.0 0.0 0.0 0.0 0.0 0.0 0.0 0.0 0.0 0.0 0.0 0.0 0.0 0.0 0.0 0.0 0.0 0.0 0.0 0.0 0.0 0.0 0.0 0.0 0.0 0.0 0.0
0.0 0.0 0.0 0.0 0.0 0.0 0.0 0.0 0.0 0.0 0.0 0.0 0.0 0.0 0.0 0.0 0.0 0.0 0.0 0.0 0.0 0.0 0.0 0.0 0.0 0.0 0.0 0.0 0.0 0.0 0.0 0.0 0.0 0.0 0.0 0.0 0.0 0.0 0.0 0.0 0.0 0.0 0.0
0.0 0.0 0.0 0.0 0.0 0.0 0.0 0.0 0.0 0.0 0.0 0.0 0.0 0.0 0.0 0.0 0.0 0.0 0.0 0.0 0.0 0.0 0.0 0.0 0.0 0.0 0.0 0.0 0.0 0.0 0.0 0.0 0.0 0.0 0.0 0.0 0.0 0.0 0.0 0.0 0.0 0.0 0.0
0.0 0.0 0.0 0.0 0.0 0.0 0.0 0.0 0.0 0.0 0.0 0.0 0.0 0.0 0.0 0.0 0.0 0.0 0.0 0.0 0.0 0.0 0.0 0.0 0.0 0.0 0.0 0.0 0.0 0.0 0.0 0.0 0.0 0.0 0.0 0.0 0.0 0.0 0.0 0.0 0.0 0.0 0.0
0.0 0.0 0.0 0.0 0.0 0.0 0.0 0.0 0.0 0.0 0.0 0.0 0.0 0.0 0.0 0.0 0.0 0.0 0.0 0.0 0.0 0.0 0.0 0.0 0.0 0.0 0.0 0.0 0.0 0.0 0.0 0.0 0.0 0.0 0.0 0.0 0.0 0.0 0.0 0.0 0.0 0.0 0.0
0.0 0.0 0.0 0.0 0.0 0.0 0.0 0.0 0.0 0.0 0.1 0.0 0.0 0.1 0.2 0.0 0.0 0.0 0.0 0.0 0.0 0.0 0.0 0.0 0.0 0.0 0.0 0.0 0.0 0.0 0.0 0.0 0.0 0.0 0.0 0.0 0.0 0.0 0.0 0.0 0.0 0.0 0.0
0.0 0.0 0.0 0.0 0.0 0.0 0.0 0.0 0.0 0.0 0.1 0.1 0.0 0.0 0.0 0.1 0.4 0.0 0.0 0.0 0.0 0.0 0.0 0.0 0.0 0.0 0.0 0.0 0.0 0.0 0.0 0.0 0.0 0.0 0.0 0.0 0.0 0.0 0.0 0.0 0.0 0.0 0.0
0.0 0.0 0.0 0.0 0.0 0.0 0.0 0.0 0.0 0.0 0.0 0.1 0.1 0.1 0.0 0.0 0.0 0.2 0.0 0.0 0.0 0.0 0.0 0.0 0.0 0.0 0.0 0.0 0.0 0.0 0.0 0.0 0.0 0.0 0.0 0.0 0.0 0.0 0.0 0.0 0.0 0.0 0.0
0.0 0.0 0.0 0.0 0.0 0.0 0.1 0.0 0.1 0.1 0.1 0.1 0.1 0.1 0.2 0.4 0.2 0.4 0.4 0.0 0.0 0.0 0.0 0.0 0.0 0.0 0.0 0.0 0.0 0.0 0.0 0.0 0.0 0.0 0.0 0.0 0.0 0.0 0.0 0.0 0.0 0.0 0.0
0.0 0.0 0.0 0.0 0.0 0.1 0.1 0.1 0.0 0.1 0.2 0.2 0.3 0.2 0.1 0.1 0.1 0.1 0.4 0.1 0.1 0.0 0.0 0.0 0.0 0.0 0.0 0.0 0.0 0.0 0.0 0.0 0.0 0.0 0.0 0.0 0.0 0.0 0.0 0.0 0.0 0.0 0.0
0.2 0.1 0.2 0.0 0.0 0.2 0.0 0.1 0.1 0.1 0.2 0.4 0.2 0.2 0.2 0.2 0.0 0.1 0.4 0.6 0.6 0.0 0.0 0.0 0.0 0.0 0.0 0.0 0.0 0.0 0.0 0.0 0.0 0.0 0.0 0.0 0.0 0.0 0.0 0.0 0.0 0.0 0.0
0.2 0.2 0.1 0.1 0.1 0.1 0.1 0.1 0.2 0.3 0.3 0.6 0.6 0.5 0.4 0.3 0.2 0.0 0.1 0.3 2.4 3.3 0.5 0.0 0.1 0.0 0.0 0.0 0.0 0.0 0.1 0.0 0.0 0.0 0.1 0.0 0.0 0.0 0.0 0.0 0.0 0.0 0.0
0.9 0.7 0.4 0.4 0.3 0.4 0.2 0.2 0.4 0.6 0.5 0.5 0.6 0.6 0.5 0.5 0.4 0.5 0.3 0.1 0.5 1.7 1.7 0.2 0.2 0.2 0.1 0.0 0.1 0.1 0.2 0.7 0.6 0.6 0.2 0.3 0.0 0.0 0.0 0.0 0.0 0.0 0.0
1.0 0.8 1.0 1.0 1.2 1.2 1.1 1.0 0.8 0.8 0.9 0.6 0.4 1.0 0.9 0.6 0.8 0.9 0.7 0.5 0.3 0.7 1.4 1.0 0.4 0.3 0.3 0.3 0.3 0.1 0.2 0.3 2.3 1.6 0.7 0.2 0.1 0.0 0.0 0.0 0.0 0.0 0.0
1.3 1.4 1.3 1.1 1.2 1.4 1.4 1.7 1.8 1.6 1.7 1.4 1.2 1.0 1.1 0.8 1.3 1.7 1.6 1.4 1.2 1.1 1.0 2.5 1.4 1.0 0.9 1.3 1.9 0.9 0.5 0.1 0.5 1.1 1.5 1.3 0.3 0.2 0.0 0.1 0.2 0.0 0.1
2.1 1.4 1.6 2.1 1.8 1.7 1.5 1.6 1.8 1.7 1.7 1.8 2.0 2.0 2.2 1.3 1.0 2.1 3.1 3.5 2.0 0.9 1.5 2.1 3.0 1.8 2.0 2.1 2.3 2.1 0.6 0.4 0.0 0.4 1.2 1.9 2.1 1.4 0.8 0.4 0.2 0.0 0.0
0.9 1.1 1.6 2.4 2.7 1.9 1.4 1.7 1.5 1.5 1.7 2.5 2.6 2.3 2.7 2.3 2.8 2.3 2.5 4.2 3.8 3.2 2.7 3.2 3.3 4.1 3.6 6.4 1.8 3.8 6.5 2.2 1.1 0.1 0.1 0.4 0.3 0.3 0.7 1.3 1.8 0.5 0.4
1.2 0.3 0.0 0.2 0.3 0.9 1.8 1.5 1.5 1.3 1.0 1.9 2.1 1.3 1.6 1.9 1.8 2.5 3.0 3.5 3.1 3.5 3.5 5.3 6.6 8.3 8.9 10.2 10.0 6.6 4.8 5.1 3.9 1.9 0.9 0.0 0.1 0.1 0.1 0.1 1.0 1.6 2.0
1.3 1.7 2.2 1.9 1.5 1.7 0.6 0.7 1.1 1.4 2.4 2.3 1.2 1.2 1.0 0.8 0.9 1.1 1.6 1.4 1.4 2.6 4.2 4.6 5.4 7.2 9.5 7.4 6.8 5.7 7.1 8.4 10.7 4.9 4.3 4.3 0.3 0.9 0.2 0.1 0.4 0.5 0.8
5.7 4.3 5.6 3.7 4.7 4.9 2.9 1.4 1.1 1.5 1.7 1.5 0.7 0.8 0.9 0.5 0.1 0.2 0.0 0.0 0.1 0.2 0.8 1.5 3.2 3.1 5.0 5.2 4.6 5.4 4.3 3.3 3.3 2.6 2.3 8.3 3.4 3.4 1.3 0.1 0.3 0.3 0.2
9.0 9.0 9.6 10.2 9.7 11.6 7.4 10.7 12.0 7.2 7.0 7.6 7.5 5.7 2.3 1.2 1.6 0.5 0.8 0.5 0.1 0.2 0.1 0.3 0.3 0.3 1.8 1.1 0.2 0.2 4.4 4.6 6.5 5.3 2.8 13.2 8.9 11.4 3.5 1.9 1.3 0.6 0.4
17.8 16.7 14.2 12.4 12.5 9.0 7.0 4.7 6.4 10.7 16.3 15.6 7.9 8.2 8.3 10.8 8.5 6.2 3.2 1.7 1.6 1.3 1.6 3.8 0.7 2.6 2.5 2.6 2.9 7.4 13.3 14.3 13.5 12.6 7.3 8.0 9.5 14.5 15.7 17.3 9.0 5.2 4.0
14.8 14.9 15.9 15.5 13.1 14.7 9.3 8.7 7.5 7.0 8.5 8.8 9.7 10.5 7.5 7.5 8.3 6.8 3.1 6.7 5.9 5.3 7.4 7.8 10.2 9.1 8.3 8.1 4.3 5.7 4.7 13.4 13.3 18.8 14.0 16.7 15.2 15.8 25.1 16.7 17.2 13.9 10.6

GFSMA_prec_kuchsnow_300.txt.gz
Snowfall_Accumulation
0.0 0.0 0.0 0.0 0.0 0.0 0.0 0.0 0.0 0.0 0.0 0.0 0.0 0.0 0.0 0.0 0.0 0.0 0.0 0.0 0.0 0.0 0.0 0.0 0.0 0.0 0.0 0.0 0.0 0.0 0.0 0.0 0.0 0.0 0.0 0.0 0.0 0.0 0.0 0.0 0.0 0.0 0.0
0.0 0.0 0.0 0.0 0.0 0.0 0.0 0.0 0.0 0.0 0.0 0.0 0.0 0.0 0.0 0.0 0.0 0.0 0.0 0.0 0.0 0.0 0.0 0.0 0.0 0.0 0.0 0.0 0.0 0.0 0.0 0.0 0.0 0.0 0.0 0.0 0.0 0.0 0.0 0.0 0.0 0.0 0.0
0.0 0.0 0.0 0.0 0.0 0.0 0.0 0.0 0.0 0.0 0.0 0.0 0.0 0.0 0.0 0.0 0.0 0.0 0.0 0.0 0.0 0.0 0.0 0.0 0.0 0.0 0.0 0.0 0.0 0.0 0.0 0.0 0.0 0.0 0.0 0.0 0.0 0.0 0.0 0.0 0.0 0.0 0.0
0.0 0.0 0.0 0.0 0.0 0.0 0.0 0.0 0.0 0.0 0.0 0.0 0.0 0.0 0.0 0.0 0.0 0.0 0.0 0.0 0.0 0.0 0.0 0.0 0.0 0.0 0.0 0.0 0.0 0.0 0.0 0.0 0.0 0.0 0.0 0.0 0.0 0.0 0.0 0.0 0.0 0.0 0.0
0.0 0.0 0.0 0.0 0.0 0.0 0.0 0.0 0.0 0.0 0.0 0.0 0.0 0.0 0.0 0.0 0.0 0.0 0.0 0.0 0.0 0.0 0.0 0.0 0.0 0.0 0.0 0.0 0.0 0.0 0.0 0.0 0.0 0.0 0.0 0.0 0.0 0.0 0.0 0.0 0.0 0.0 0.0
0.0 0.0 0.0 0.0 0.0 0.0 0.0 0.0 0.0 0.0 0.0 0.0 0.0 0.0 0.0 0.0 0.0 0.0 0.0 0.0 0.0 0.0 0.0 0.0 0.0 0.0 0.0 0.0 0.0 0.0 0.0 0.0 0.0 0.0 0.0 0.0 0.0 0.0 0.0 0.0 0.0 0.0 0.0
0.0 0.0 0.0 0.0 0.0 0.0 0.0 0.0 0.0 0.0 0.0 0.0 0.0 0.0 0.0 0.0 0.0 0.0 0.0 0.0 0.0 0.0 0.0 0.0 0.0 0.0 0.0 0.0 0.0 0.0 0.0 0.0 0.0 0.0 0.0 0.0 0.0 0.0 0.0 0.0 0.0 0.0 0.0
0.0 0.0 0.0 0.0 0.0 0.0 0.0 0.0 0.0 0.0 0.0 0.0 0.0 0.0 0.0 0.0 0.0 0.0 0.0 0.0 0.0 0.0 0.0 0.0 0.0 0.0 0.0 0.0 0.0 0.0 0.0 0.0 0.0 0.0 0.0 0.0 0.0 0.0 0.0 0.0 0.0 0.0 0.0
0.0 0.0 0.0 0.0 0.0 0.0 0.0 0.0 0.0 0.0 0.1 0.0 0.0 0.1 0.2 0.0 0.0 0.0 0.0 0.0 0.0 0.0 0.0 0.0 0.0 0.0 0.0 0.0 0.0 0.0 0.0 0.0 0.0 0.0 0.0 0.0 0.0 0.0 0.0 0.0 0.0 0.0 0.0
0.0 0.0 0.0 0.0 0.0 0.0 0.0 0.0 0.0 0.0 0.1 0.1 0.0 0.0 0.0 0.1 0.4 0.0 0.0 0.0 0.0 0.0 0.0 0.0 0.0 0.0 0.0 0.0 0.0 0.0 0.0 0.0 0.0 0.0 0.0 0.0 0.0 0.0 0.0 0.0 0.0 0.0 0.0
0.0 0.0 0.0 0.0 0.0 0.0 0.0 0.0 0.0 0.0 0.0 0.1 0.1 0.1 0.0 0.0 0.0 0.2 0.0 0.0 0.0 0.0 0.0 0.0 0.0 0.0 0.0 0.0 0.0 0.0 0.0 0.0 0.0 0.0 0.0 0.0 0.0 0.0 0.0 0.0 0.0 0.0 0.0
0.0 0.0 0.0 0.0 0.0 0.0 0.1 0.0 0.1 0.1 0.1 0.1 0.1 0.1 0.2 0.4 0.2 0.4 0.4 0.0 0.0 0.0 0.0 0.0 0.0 0.0 0.0 0.0 0.0 0.0 0.0 0.0 0.0 0.0 0.0 0.0 0.0 0.0 0.0 0.0 0.0 0.0 0.0
0.0 0.0 0.0 0.0 0.0 0.1 0.1 0.1 0.0 0.1 0.2 0.2 0.3 0.2 0.1 0.1 0.1 0.1 0.4 0.1 0.1 0.0 0.0 0.0 0.0 0.0 0.0 0.0 0.0 0.0 0.0 0.0 0.0 0.0 0.0 0.0 0.0 0.0 0.0 0.0 0.0 0.0 0.0
0.2 0.1 0.2 0.0 0.0 0.2 0.0 0.1 0.1 0.1 0.2 0.4 0.2 0.2 0.2 0.2 0.0 0.1 0.4 0.6 0.6 0.0 0.0 0.0 0.0 0.0 0.0 0.0 0.0 0.0 0.0 0.0 0.0 0.0 0.0 0.0 0.0 0.0 0.0 0.0 0.0 0.0 0.0
0.2 0.2 0.1 0.1 0.1 0.1 0.1 0.1 0.2 0.3 0.3 0.6 0.6 0.5 0.4 0.3 0.2 0.0 0.1 0.3 2.4 3.3 0.5 0.0 0.1 0.0 0.0 0.0 0.0 0.0 0.1 0.0 0.0 0.0 0.1 0.0 0.0 0.0 0.0 0.0 0.0 0.0 0.0
0.9 0.7 0.4 0.4 0.3 0.4 0.2 0.2 0.4 0.6 0.5 0.5 0.6 0.6 0.5 0.5 0.4 0.5 0.3 0.1 0.5 1.7 1.7 0.2 0.2 0.2 0.1 0.0 0.1 0.1 0.2 0.7 0.6 0.6 0.2 0.3 0.0 0.0 0.0 0.0 0.0 0.0 0.0
1.0 0.8 1.0 1.0 1.2 1.2 1.1 1.0 0.8 0.8 0.9 0.6 0.4 1.0 0.9 0.6 0.8 0.9 0.7 0.5 0.3 0.7 1.4 1.0 0.4 0.3 0.3 0.3 0.3 0.1 0.2 0.3 2.3 1.6 0.7 0.2 0.1 0.0 0.0 0.0 0.0 0.0 0.0
1.3 1.4 1.3 1.1 1.2 1.4 1.4 1.7 1.8 1.6 1.7 1.4 1.2 1.0 1.1 0.8 1.3 1.7 1.6 1.4 1.2 1.1 1.0 2.5 1.4 1.0 0.9 1.3 1.9 0.9 0.5 0.1 0.5 1.1 1.5 1.3 0.3 0.2 0.0 0.1 0.2 0.0 0.1
2.1 1.4 1.6 2.1 1.8 1.7 1.5 1.6 1.8 1.7 1.7 1.8 2.0 2.0 2.2 1.3 1.0 2.1 3.1 3.5 2.0 0.9 1.5 2.1 3.0 1.8 2.0 2.1 2.3 2.1 0.6 0.4 0.0 0.4 1.2 1.9 2.1 1.4 0.8 0.4 0.2 0.0 0.0
0.9 1.1 1.6 2.4 2.7 1.9 1.4 1.7 1.5 1.5 1.7 2.5 2.6 2.3 2.7 2.3 2.8 2.3 2.5 4.2 3.8 3.2 2.7 3.2 3.3 4.1 3.6 6.4 1.8 3.8 6.5 2.2 1.1 0.1 0.1 0.4 0.3 0.3 0.7 1.3 1.8 0.5 0.4
1.2 0.3 0.0 0.2 0.3 0.9 1.8 1.5 1.5 1.3 1.0 1.9 2.1 1.3 1.6 1.9 1.8 2.5 3.0 3.5 3.1 3.5 3.5 5.4 6.6 8.3 8.9 10.2 10.0 6.6 4.9 5.1 3.9 1.9 0.9 0.0 0.1 0.1 0.1 0.1 1.0 1.6 2.0
1.3 1.7 2.2 1.9 1.5 1.7 0.6 0.7 1.1 1.4 2.4 2.3 1.2 1.2 1.0 0.8 0.9 1.1 1.6 1.4 1.4 2.6 4.2 4.6 5.4 7.2 9.5 7.5 6.8 5.8 7.2 8.6 10.8 4.9 4.3 4.3 0.3 0.9 0.2 0.1 0.4 0.5 0.8
5.7 4.3 5.6 3.7 4.7 4.9 2.9 1.4 1.1 1.5 1.7 1.5 0.7 0.8 0.9 0.5 0.1 0.2 0.0 0.0 0.1 0.3 0.8 1.5 3.2 3.1 5.1 5.2 4.7 5.6 4.4 3.5 3.5 2.6 2.3 8.3 3.4 3.4 1.3 0.1 0.3 0.3 0.2
9.0 9.0 9.6 10.2 9.7 11.6 7.4 10.7 12.0 7.2 7.0 7.6 7.5 5.7 2.3 1.2 1.6 0.5 0.8 0.5 0.1 0.2 0.1 0.3 0.3 0.3 1.8 1.1 0.2 0.3 4.5 4.8 6.5 5.3 2.8 13.4 8.9 11.4 3.5 1.9 1.3 0.6 0.4
17.8 16.7 14.2 12.4 12.5 9.0 7.0 4.7 6.4 10.7 16.3 15.6 7.9 8.2 8.3 10.8 8.5 6.2 3.2 1.7 1.6 1.3 1.6 3.8 0.7 2.6 2.5 2.6 2.9 7.5 13.4 14.5 13.6 12.6 7.3 8.2 9.5 14.5 15.7 17.3 9.0 5.2 4.1
14.8 14.9 15.9 15.5 13.1 14.7 9.3 8.7 7.5 7.0 8.5 8.8 9.7 10.5 7.5 7.5 8.3 6.8 3.1 6.7 5.9 5.3 7.4 7.8 10.2 9.1 8.3 8.1 4.3 5.7 4.8 13.9 13.5 19.1 14.0 17.3 15.2 16.0 25.5 16.7 17.2 14.0 10.6

GFSMA_prec_kuchsnow_303.txt.gz
Snowfall_Accumulation
0.0 0.0 0.0 0.0 0.0 0.0 0.0 0.0 0.0 0.0 0.0 0.0 0.0 0.0 0.0 0.0 0.0 0.0 0.0 0.0 0.0 0.0 0.0 0.0 0.0 0.0 0.0 0.0 0.0 0.0 0.0 0.0 0.0 0.0 0.0 0.0 0.0 0.0 0.0 0.0 0.0 0.0 0.0
0.0 0.0 0.0 0.0 0.0 0.0 0.0 0.0 0.0 0.0 0.0 0.0 0.0 0.0 0.0 0.0 0.0 0.0 0.0 0.0 0.0 0.0 0.0 0.0 0.0 0.0 0.0 0.0 0.0 0.0 0.0 0.0 0.0 0.0 0.0 0.0 0.0 0.0 0.0 0.0 0.0 0.0 0.0
0.0 0.0 0.0 0.0 0.0 0.0 0.0 0.0 0.0 0.0 0.0 0.0 0.0 0.0 0.0 0.0 0.0 0.0 0.0 0.0 0.0 0.0 0.0 0.0 0.0 0.0 0.0 0.0 0.0 0.0 0.0 0.0 0.0 0.0 0.0 0.0 0.0 0.0 0.0 0.0 0.0 0.0 0.0
0.0 0.0 0.0 0.0 0.0 0.0 0.0 0.0 0.0 0.0 0.0 0.0 0.0 0.0 0.0 0.0 0.0 0.0 0.0 0.0 0.0 0.0 0.0 0.0 0.0 0.0 0.0 0.0 0.0 0.0 0.0 0.0 0.0 0.0 0.0 0.0 0.0 0.0 0.0 0.0 0.0 0.0 0.0
0.0 0.0 0.0 0.0 0.0 0.0 0.0 0.0 0.0 0.0 0.0 0.0 0.0 0.0 0.0 0.0 0.0 0.0 0.0 0.0 0.0 0.0 0.0 0.0 0.0 0.0 0.0 0.0 0.0 0.0 0.0 0.0 0.0 0.0 0.0 0.0 0.0 0.0 0.0 0.0 0.0 0.0 0.0
0.0 0.0 0.0 0.0 0.0 0.0 0.0 0.0 0.0 0.0 0.0 0.0 0.0 0.0 0.0 0.0 0.0 0.0 0.0 0.0 0.0 0.0 0.0 0.0 0.0 0.0 0.0 0.0 0.0 0.0 0.0 0.0 0.0 0.0 0.0 0.0 0.0 0.0 0.0 0.0 0.0 0.0 0.0
0.0 0.0 0.0 0.0 0.0 0.0 0.0 0.0 0.0 0.0 0.0 0.0 0.0 0.0 0.0 0.0 0.0 0.0 0.0 0.0 0.0 0.0 0.0 0.0 0.0 0.0 0.0 0.0 0.0 0.0 0.0 0.0 0.0 0.0 0.0 0.0 0.0 0.0 0.0 0.0 0.0 0.0 0.0
0.0 0.0 0.0 0.0 0.0 0.0 0.0 0.0 0.0 0.0 0.0 0.0 0.0 0.0 0.0 0.0 0.0 0.0 0.0 0.0 0.0 0.0 0.0 0.0 0.0 0.0 0.0 0.0 0.0 0.0 0.0 0.0 0.0 0.0 0.0 0.0 0.0 0.0 0.0 0.0 0.0 0.0 0.0
0.0 0.0 0.0 0.0 0.0 0.0 0.0 0.0 0.0 0.0 0.1 0.0 0.0 0.1 0.2 0.0 0.0 0.0 0.0 0.0 0.0 0.0 0.0 0.0 0.0 0.0 0.0 0.0 0.0 0.0 0.0 0.0 0.0 0.0 0.0 0.0 0.0 0.0 0.0 0.0 0.0 0.0 0.0
0.0 0.0 0.0 0.0 0.0 0.0 0.0 0.0 0.0 0.0 0.1 0.1 0.0 0.0 0.0 0.1 0.4 0.0 0.0 0.0 0.0 0.0 0.0 0.0 0.0 0.0 0.0 0.0 0.0 0.0 0.0 0.0 0.0 0.0 0.0 0.0 0.0 0.0 0.0 0.0 0.0 0.0 0.0
0.0 0.0 0.0 0.0 0.0 0.0 0.0 0.0 0.0 0.0 0.0 0.1 0.1 0.1 0.0 0.0 0.0 0.2 0.0 0.0 0.0 0.0 0.0 0.0 0.0 0.0 0.0 0.0 0.0 0.0 0.0 0.0 0.0 0.0 0.0 0.0 0.0 0.0 0.0 0.0 0.0 0.0 0.0
0.0 0.0 0.0 0.0 0.0 0.0 0.1 0.0 0.1 0.1 0.1 0.1 0.1 0.1 0.2 0.4 0.2 0.4 0.4 0.0 0.0 0.0 0.0 0.0 0.0 0.0 0.0 0.0 0.0 0.0 0.0 0.0 0.0 0.0 0.0 0.0 0.0 0.0 0.0 0.0 0.0 0.0 0.0
0.0 0.0 0.0 0.0 0.0 0.1 0.1 0.1 0.0 0.1 0.2 0.2 0.3 0.2 0.1 0.1 0.1 0.1 0.4 0.1 0.1 0.0 0.0 0.0 0.0 0.0 0.0 0.0 0.0 0.0 0.0 0.0 0.0 0.0 0.0 0.0 0.0 0.0 0.0 0.0 0.0 0.0 0.0
0.2 0.1 0.2 0.0 0.0 0.2 0.0 0.1 0.1 0.1 0.2 0.4 0.2 0.2 0.2 0.2 0.0 0.1 0.4 0.6 0.6 0.0 0.0 0.0 0.0 0.0 0.0 0.0 0.0 0.0 0.0 0.0 0.0 0.0 0.0 0.0 0.0 0.0 0.0 0.0 0.0 0.0 0.0
0.2 0.2 0.1 0.1 0.1 0.1 0.1 0.1 0.2 0.3 0.3 0.6 0.6 0.5 0.4 0.3 0.2 0.0 0.1 0.3 2.4 3.3 0.5 0.0 0.1 0.0 0.0 0.0 0.0 0.0 0.1 0.0 0.0 0.0 0.1 0.0 0.0 0.0 0.0 0.0 0.0 0.0 0.0
0.9 0.7 0.4 0.4 0.3 0.4 0.2 0.2 0.4 0.6 0.5 0.5 0.6 0.6 0.5 0.5 0.4 0.5 0.3 0.1 0.5 1.7 1.7 0.2 0.2 0.2 0.1 0.0 0.1 0.1 0.2 0.7 0.6 0.6 0.2 0.3 0.0 0.0 0.0 0.0 0.0 0.0 0.0
1.0 0.8 1.0 1.0 1.2 1.2 1.1 1.0 0.8 0.8 0.9 0.6 0.4 1.0 0.9 0.6 0.8 0.9 0.7 0.5 0.3 0.7 1.4 1.0 0.4 0.3 0.3 0.3 0.3 0.1 0.2 0.3 2.3 1.6 0.7 0.2 0.1 0.0 0.0 0.0 0.0 0.0 0.0
1.3 1.4 1.3 1.1 1.2 1.4 1.4 1.7 1.8 1.6 1.7 1.4 1.2 1.0 1.1 0.8 1.3 1.7 1.6 1.4 1.2 1.1 1.0 2.5 1.4 1.0 0.9 1.3 1.9 0.9 0.5 0.1 0.5 1.1 1.5 1.3 0.3 0.2 0.0 0.1 0.2 0.0 0.1
2.1 1.4 1.6 2.1 1.8 1.7 1.5 1.6 1.8 1.7 1.7 1.8 2.0 2.0 2.2 1.3 1.0 2.1 3.1 3.5 2.0 0.9 1.5 2.1 3.0 1.8 2.0 2.1 2.3 2.1 0.6 0.4 0.0 0.4 1.2 1.9 2.1 1.4 0.8 0.4 0.2 0.0 0.0
0.9 1.1 1.6 2.4 2.7 1.9 1.4 1.7 1.5 1.5 1.7 2.5 2.6 2.3 2.7 2.3 2.8 2.3 2.5 4.2 3.8 3.2 2.7 3.2 3.3 4.1 3.6 6.4 1.8 3.8 6.5 2.2 1.1 0.1 0.1 0.4 0.3 0.3 0.7 1.3 1.8 0.5 0.4
1.2 0.3 0.0 0.2 0.3 0.9 1.8 1.5 1.5 1.3 1.0 1.9 2.1 1.3 1.6 1.9 1.8 2.5 3.0 3.5 3.1 3.5 3.5 5.4 6.6 8.3 8.9 10.2 10.1 6.6 4.9 5.1 3.9 1.9 0.9 0.0 0.1 0.1 0.1 0.1 1.0 1.6 2.0
1.3 1.7 2.2 1.9 1.5 1.7 0.6 0.7 1.1 1.4 2.4 2.3 1.2 1.2 1.0 0.8 0.9 1.1 1.6 1.4 1.4 2.6 4.2 4.6 5.4 7.2 9.5 7.5 6.8 5.8 7.3 8.6 10.8 4.9 4.3 4.3 0.3 0.9 0.2 0.1 0.4 0.5 0.8
5.7 4.3 5.6 3.7 4.7 4.9 2.9 1.4 1.1 1.5 1.7 1.5 0.7 0.8 0.9 0.5 0.1 0.2 0.0 0.0 0.1 0.3 0.8 1.5 3.2 3.1 5.1 5.2 4.8 5.7 4.4 3.5 3.5 2.6 2.3 8.3 3.4 3.4 1.3 0.1 0.3 0.3 0.2
9.0 9.0 9.6 10.2 9.7 11.6 7.4 10.7 12.0 7.2 7.0 7.6 7.5 5.7 2.3 1.2 1.6 0.5 0.8 0.5 0.1 0.2 0.1 0.3 0.3 0.3 1.8 1.1 0.2 0.3 4.6 4.8 6.5 5.3 2.8 13.4 8.9 11.4 3.5 1.9 1.3 0.6 0.4
17.8 16.7 14.2 12.4 12.5 9.0 7.0 4.7 6.4 10.7 16.3 15.6 7.9 8.2 8.3 10.8 8.5 6.2 3.2 1.7 1.6 1.3 1.6 3.8 0.7 2.6 2.5 2.6 2.9 7.5 13.5 14.7 13.7 12.6 7.3 8.4 9.5 14.6 15.7 17.3 9.0 5.2 4.1
14.8 14.9 15.9 15.5 13.1 14.7 9.3 8.7 7.5 7.0 8.5 8.8 9.7 10.5 7.5 7.5 8.3 6.8 3.1 6.7 5.9 5.4 7.4 7.8 10.2 9.1 8.3 8.1 4.3 5.7 5.0 14.3 13.7 19.3 14.0 17.7 15.2 16.1 25.6 16.7 17.2 14.0 10.6

GFSMA_prec_kuchsnow_306.txt.gz
Snowfall_Accumulation
0.0 0.0 0.0 0.0 0.0 0.0 0.0 0.0 0.0 0.0 0.0 0.0 0.0 0.0 0.0 0.0 0.0 0.0 0.0 0.0 0.0 0.0 0.0 0.0 0.0 0.0 0.0 0.0 0.0 0.0 0.0 0.0 0.0 0.0 0.0 0.0 0.0 0.0 0.0 0.0 0.0 0.0 0.0
0.0 0.0 0.0 0.0 0.0 0.0 0.0 0.0 0.0 0.0 0.0 0.0 0.0 0.0 0.0 0.0 0.0 0.0 0.0 0.0 0.0 0.0 0.0 0.0 0.0 0.0 0.0 0.0 0.0 0.0 0.0 0.0 0.0 0.0 0.0 0.0 0.0 0.0 0.0 0.0 0.0 0.0 0.0
0.0 0.0 0.0 0.0 0.0 0.0 0.0 0.0 0.0 0.0 0.0 0.0 0.0 0.0 0.0 0.0 0.0 0.0 0.0 0.0 0.0 0.0 0.0 0.0 0.0 0.0 0.0 0.0 0.0 0.0 0.0 0.0 0.0 0.0 0.0 0.0 0.0 0.0 0.0 0.0 0.0 0.0 0.0
0.0 0.0 0.0 0.0 0.0 0.0 0.0 0.0 0.0 0.0 0.0 0.0 0.0 0.0 0.0 0.0 0.0 0.0 0.0 0.0 0.0 0.0 0.0 0.0 0.0 0.0 0.0 0.0 0.0 0.0 0.0 0.0 0.0 0.0 0.0 0.0 0.0 0.0 0.0 0.0 0.0 0.0 0.0
0.0 0.0 0.0 0.0 0.0 0.0 0.0 0.0 0.0 0.0 0.0 0.0 0.0 0.0 0.0 0.0 0.0 0.0 0.0 0.0 0.0 0.0 0.0 0.0 0.0 0.0 0.0 0.0 0.0 0.0 0.0 0.0 0.0 0.0 0.0 0.0 0.0 0.0 0.0 0.0 0.0 0.0 0.0
0.0 0.0 0.0 0.0 0.0 0.0 0.0 0.0 0.0 0.0 0.0 0.0 0.0 0.0 0.0 0.0 0.0 0.0 0.0 0.0 0.0 0.0 0.0 0.0 0.0 0.0 0.0 0.0 0.0 0.0 0.0 0.0 0.0 0.0 0.0 0.0 0.0 0.0 0.0 0.0 0.0 0.0 0.0
0.0 0.0 0.0 0.0 0.0 0.0 0.0 0.0 0.0 0.0 0.0 0.0 0.0 0.0 0.0 0.0 0.0 0.0 0.0 0.0 0.0 0.0 0.0 0.0 0.0 0.0 0.0 0.0 0.0 0.0 0.0 0.0 0.0 0.0 0.0 0.0 0.0 0.0 0.0 0.0 0.0 0.0 0.0
0.0 0.0 0.0 0.0 0.0 0.0 0.0 0.0 0.0 0.0 0.0 0.0 0.0 0.0 0.0 0.0 0.0 0.0 0.0 0.0 0.0 0.0 0.0 0.0 0.0 0.0 0.0 0.0 0.0 0.0 0.0 0.0 0.0 0.0 0.0 0.0 0.0 0.0 0.0 0.0 0.0 0.0 0.0
0.0 0.0 0.0 0.0 0.0 0.0 0.0 0.0 0.0 0.0 0.1 0.0 0.0 0.1 0.2 0.0 0.0 0.0 0.0 0.0 0.0 0.0 0.0 0.0 0.0 0.0 0.0 0.0 0.0 0.0 0.0 0.0 0.0 0.0 0.0 0.0 0.0 0.0 0.0 0.0 0.0 0.0 0.0
0.0 0.0 0.0 0.0 0.0 0.0 0.0 0.0 0.0 0.0 0.1 0.1 0.0 0.0 0.0 0.1 0.4 0.0 0.0 0.0 0.0 0.0 0.0 0.0 0.0 0.0 0.0 0.0 0.0 0.0 0.0 0.0 0.0 0.0 0.0 0.0 0.0 0.0 0.0 0.0 0.0 0.0 0.0
0.0 0.0 0.0 0.0 0.0 0.0 0.0 0.0 0.0 0.0 0.0 0.1 0.1 0.1 0.0 0.0 0.0 0.2 0.0 0.0 0.0 0.0 0.0 0.0 0.0 0.0 0.0 0.0 0.0 0.0 0.0 0.0 0.0 0.0 0.0 0.0 0.0 0.0 0.0 0.0 0.0 0.0 0.0
0.0 0.0 0.0 0.0 0.0 0.0 0.1 0.0 0.1 0.1 0.1 0.1 0.1 0.1 0.2 0.4 0.2 0.4 0.4 0.0 0.0 0.0 0.0 0.0 0.0 0.0 0.0 0.0 0.0 0.0 0.0 0.0 0.0 0.0 0.0 0.0 0.0 0.0 0.0 0.0 0.0 0.0 0.0
0.0 0.0 0.0 0.0 0.0 0.1 0.1 0.1 0.0 0.1 0.2 0.2 0.3 0.2 0.1 0.1 0.1 0.1 0.4 0.1 0.1 0.0 0.0 0.0 0.0 0.0 0.0 0.0 0.0 0.0 0.0 0.0 0.0 0.0 0.0 0.0 0.0 0.0 0.0 0.0 0.0 0.0 0.0
0.2 0.1 0.2 0.0 0.0 0.2 0.0 0.1 0.1 0.1 0.2 0.4 0.2 0.2 0.2 0.2 0.0 0.1 0.4 0.6 0.6 0.0 0.0 0.0 0.0 0.0 0.0 0.0 0.0 0.0 0.0 0.0 0.0 0.0 0.0 0.0 0.0 0.0 0.0 0.0 0.0 0.0 0.0
0.2 0.2 0.1 0.1 0.1 0.1 0.1 0.1 0.2 0.3 0.3 0.6 0.6 0.5 0.4 0.3 0.2 0.0 0.1 0.3 2.4 3.3 0.5 0.0 0.1 0.0 0.0 0.0 0.0 0.0 0.1 0.0 0.0 0.0 0.1 0.0 0.0 0.0 0.0 0.0 0.0 0.0 0.0
0.9 0.7 0.4 0.4 0.3 0.4 0.2 0.2 0.4 0.6 0.5 0.5 0.6 0.6 0.5 0.5 0.4 0.5 0.3 0.1 0.5 1.7 1.7 0.2 0.2 0.2 0.1 0.0 0.1 0.1 0.2 0.7 0.6 0.6 0.2 0.3 0.0 0.0 0.0 0.0 0.0 0.0 0.0
1.0 0.8 1.0 1.0 1.2 1.2 1.1 1.0 0.8 0.8 0.9 0.6 0.4 1.0 0.9 0.6 0.8 0.9 0.7 0.5 0.3 0.7 1.4 1.0 0.4 0.3 0.3 0.3 0.3 0.1 0.2 0.3 2.3 1.6 0.7 0.2 0.1 0.0 0.0 0.0 0.0 0.0 0.0
1.3 1.4 1.3 1.1 1.2 1.4 1.4 1.7 1.8 1.6 1.7 1.4 1.2 1.0 1.1 0.8 1.3 1.7 1.6 1.4 1.2 1.1 1.0 2.5 1.4 1.0 0.9 1.3 1.9 0.9 0.5 0.1 0.5 1.1 1.5 1.3 0.3 0.2 0.0 0.1 0.2 0.0 0.1
2.1 1.4 1.6 2.1 1.8 1.7 1.5 1.6 1.8 1.7 1.7 1.8 2.0 2.0 2.2 1.3 1.0 2.1 3.1 3.5 2.0 0.9 1.5 2.1 3.0 1.8 2.0 2.1 2.3 2.1 0.6 0.4 0.0 0.4 1.2 1.9 2.1 1.4 0.8 0.4 0.2 0.0 0.0
0.9 1.1 1.6 2.4 2.7 1.9 1.4 1.7 1.5 1.5 1.7 2.5 2.6 2.3 2.7 2.3 2.8 2.3 2.5 4.2 3.8 3.2 2.7 3.2 3.3 4.1 3.6 6.4 1.8 3.8 6.5 2.2 1.1 0.1 0.1 0.4 0.3 0.3 0.7 1.3 1.8 0.5 0.4
1.2 0.3 0.0 0.2 0.3 0.9 1.8 1.5 1.5 1.3 1.0 1.9 2.1 1.3 1.6 1.9 1.8 2.5 3.0 3.5 3.1 3.5 3.5 5.4 6.6 8.3 8.9 10.2 10.1 6.6 4.9 5.1 3.9 1.9 0.9 0.0 0.1 0.1 0.1 0.1 1.0 1.6 2.0
1.3 1.7 2.2 1.9 1.5 1.7 0.6 0.7 1.1 1.4 2.4 2.3 1.2 1.2 1.0 0.8 0.9 1.1 1.6 1.4 1.4 2.6 4.2 4.6 5.4 7.2 9.5 7.5 6.8 5.8 7.3 8.6 10.9 4.9 4.3 4.3 0.3 0.9 0.2 0.1 0.4 0.5 0.8
5.7 4.3 5.6 3.7 4.7 4.9 2.9 1.4 1.1 1.5 1.7 1.5 0.7 0.8 0.9 0.5 0.1 0.2 0.0 0.0 0.1 0.3 0.8 1.5 3.2 3.1 5.1 5.2 4.8 5.7 4.4 3.6 3.5 2.6 2.3 8.3 3.4 3.4 1.3 0.1 0.3 0.3 0.2
9.0 9.0 9.6 10.2 9.7 11.6 7.4 10.7 12.0 7.2 7.0 7.6 7.5 5.7 2.3 1.2 1.6 0.5 0.8 0.5 0.1 0.2 0.1 0.3 0.3 0.3 1.8 1.1 0.2 0.3 4.6 4.8 6.5 5.3 2.8 13.4 8.9 11.4 3.5 1.9 1.3 0.6 0.4
17.8 16.7 14.2 12.4 12.5 9.0 7.0 4.7 6.4 10.7 16.3 15.6 7.9 8.2 8.3 10.8 8.5 6.2 3.2 1.7 1.6 1.3 1.6 3.8 0.7 2.6 2.5 2.6 2.9 7.5 13.6 14.7 13.8 12.6 7.3 8.4 9.6 14.6 15.7 17.3 9.0 5.2 4.1
14.8 14.9 15.9 15.5 13.1 14.7 9.3 8.7 7.5 7.0 8.5 8.8 9.7 10.5 7.5 7.5 8.3 6.8 3.1 6.7 5.9 5.4 7.4 7.8 10.2 9.1 8.3 8.1 4.3 5.7 5.0 14.4 13.9 19.5 14.0 17.8 15.3 16.2 25.7 16.7 17.2 14.0 10.6

GFSMA_prec_kuchsnow_312.txt.gz
Snowfall_Accumulation
0.0 0.0 0.0 0.0 0.0 0.0 0.0 0.0 0.0 0.0 0.0 0.0 0.0 0.0 0.0 0.0 0.0 0.0 0.0 0.0 0.0 0.0 0.0 0.0 0.0 0.0 0.0 0.0 0.0 0.0 0.0 0.0 0.0 0.0 0.0 0.0 0.0 0.0 0.0 0.0 0.0 0.0 0.0
0.0 0.0 0.0 0.0 0.0 0.0 0.0 0.0 0.0 0.0 0.0 0.0 0.0 0.0 0.0 0.0 0.0 0.0 0.0 0.0 0.0 0.0 0.0 0.0 0.0 0.0 0.0 0.0 0.0 0.0 0.0 0.0 0.0 0.0 0.0 0.0 0.0 0.0 0.0 0.0 0.0 0.0 0.0
0.0 0.0 0.0 0.0 0.0 0.0 0.0 0.0 0.0 0.0 0.0 0.0 0.0 0.0 0.0 0.0 0.0 0.0 0.0 0.0 0.0 0.0 0.0 0.0 0.0 0.0 0.0 0.0 0.0 0.0 0.0 0.0 0.0 0.0 0.0 0.0 0.0 0.0 0.0 0.0 0.0 0.0 0.0
0.0 0.0 0.0 0.0 0.0 0.0 0.0 0.0 0.0 0.0 0.0 0.0 0.0 0.0 0.0 0.0 0.0 0.0 0.0 0.0 0.0 0.0 0.0 0.0 0.0 0.0 0.0 0.0 0.0 0.0 0.0 0.0 0.0 0.0 0.0 0.0 0.0 0.0 0.0 0.0 0.0 0.0 0.0
0.0 0.0 0.0 0.0 0.0 0.0 0.0 0.0 0.0 0.0 0.0 0.0 0.0 0.0 0.0 0.0 0.0 0.0 0.0 0.0 0.0 0.0 0.0 0.0 0.0 0.0 0.0 0.0 0.0 0.0 0.0 0.0 0.0 0.0 0.0 0.0 0.0 0.0 0.0 0.0 0.0 0.0 0.0
0.0 0.0 0.0 0.0 0.0 0.0 0.0 0.0 0.0 0.0 0.0 0.0 0.0 0.0 0.0 0.0 0.0 0.0 0.0 0.0 0.0 0.0 0.0 0.0 0.0 0.0 0.0 0.0 0.0 0.0 0.0 0.0 0.0 0.0 0.0 0.0 0.0 0.0 0.0 0.0 0.0 0.0 0.0
0.0 0.0 0.0 0.0 0.0 0.0 0.0 0.0 0.0 0.0 0.0 0.0 0.0 0.0 0.0 0.0 0.0 0.0 0.0 0.0 0.0 0.0 0.0 0.0 0.0 0.0 0.0 0.0 0.0 0.0 0.0 0.0 0.0 0.0 0.0 0.0 0.0 0.0 0.0 0.0 0.0 0.0 0.0
0.0 0.0 0.0 0.0 0.0 0.0 0.0 0.0 0.0 0.0 0.0 0.0 0.0 0.0 0.0 0.0 0.0 0.0 0.0 0.0 0.0 0.0 0.0 0.0 0.0 0.0 0.0 0.0 0.0 0.0 0.0 0.0 0.0 0.0 0.0 0.0 0.0 0.0 0.0 0.0 0.0 0.0 0.0
0.0 0.0 0.0 0.0 0.0 0.0 0.0 0.0 0.0 0.0 0.1 0.0 0.0 0.1 0.2 0.0 0.0 0.0 0.0 0.0 0.0 0.0 0.0 0.0 0.0 0.0 0.0 0.0 0.0 0.0 0.0 0.0 0.0 0.0 0.0 0.0 0.0 0.0 0.0 0.0 0.0 0.0 0.0
0.0 0.0 0.0 0.0 0.0 0.0 0.0 0.0 0.0 0.0 0.1 0.1 0.0 0.0 0.0 0.1 0.4 0.0 0.0 0.0 0.0 0.0 0.0 0.0 0.0 0.0 0.0 0.0 0.0 0.0 0.0 0.0 0.0 0.0 0.0 0.0 0.0 0.0 0.0 0.0 0.0 0.0 0.0
0.0 0.0 0.0 0.0 0.0 0.0 0.0 0.0 0.0 0.0 0.0 0.1 0.1 0.1 0.0 0.0 0.0 0.2 0.0 0.0 0.0 0.0 0.0 0.0 0.0 0.0 0.0 0.0 0.0 0.0 0.0 0.0 0.0 0.0 0.0 0.0 0.0 0.0 0.0 0.0 0.0 0.0 0.0
0.0 0.0 0.0 0.0 0.0 0.0 0.1 0.0 0.1 0.1 0.1 0.1 0.1 0.1 0.2 0.4 0.2 0.4 0.4 0.0 0.0 0.0 0.0 0.0 0.0 0.0 0.0 0.0 0.0 0.0 0.0 0.0 0.0 0.0 0.0 0.0 0.0 0.0 0.0 0.0 0.0 0.0 0.0
0.0 0.0 0.0 0.0 0.0 0.1 0.1 0.1 0.0 0.1 0.2 0.2 0.3 0.2 0.1 0.1 0.1 0.1 0.4 0.1 0.1 0.0 0.0 0.0 0.0 0.0 0.0 0.0 0.0 0.0 0.0 0.0 0.0 0.0 0.0 0.0 0.0 0.0 0.0 0.0 0.0 0.0 0.0
0.2 0.1 0.2 0.0 0.0 0.2 0.0 0.1 0.1 0.1 0.2 0.4 0.2 0.2 0.2 0.2 0.0 0.1 0.4 0.6 0.6 0.0 0.0 0.0 0.0 0.0 0.0 0.0 0.0 0.0 0.0 0.0 0.0 0.0 0.0 0.0 0.0 0.0 0.0 0.0 0.0 0.0 0.0
0.2 0.2 0.1 0.1 0.1 0.1 0.1 0.1 0.2 0.3 0.3 0.6 0.6 0.5 0.4 0.3 0.2 0.0 0.1 0.3 2.4 3.3 0.5 0.0 0.1 0.0 0.0 0.0 0.0 0.0 0.1 0.0 0.0 0.0 0.1 0.0 0.0 0.0 0.0 0.0 0.0 0.0 0.0
0.9 0.7 0.4 0.4 0.3 0.4 0.2 0.2 0.4 0.6 0.5 0.5 0.6 0.6 0.5 0.5 0.4 0.5 0.3 0.1 0.5 1.7 1.7 0.2 0.2 0.2 0.1 0.0 0.1 0.1 0.2 0.7 0.6 0.6 0.2 0.3 0.0 0.0 0.0 0.0 0.0 0.0 0.0
1.0 0.8 1.0 1.0 1.2 1.2 1.1 1.0 0.8 0.8 0.9 0.6 0.4 1.0 0.9 0.6 0.8 0.9 0.7 0.5 0.3 0.7 1.4 1.0 0.4 0.3 0.3 0.3 0.3 0.1 0.2 0.3 2.3 1.6 0.7 0.2 0.1 0.0 0.0 0.0 0.0 0.0 0.0
1.3 1.4 1.3 1.1 1.2 1.4 1.4 1.7 1.8 1.6 1.7 1.4 1.2 1.0 1.1 0.8 1.3 1.7 1.6 1.4 1.2 1.1 1.0 2.5 1.4 1.0 0.9 1.3 1.9 0.9 0.5 0.1 0.5 1.1 1.5 1.3 0.3 0.2 0.0 0.1 0.2 0.0 0.1
2.1 1.4 1.6 2.1 1.8 1.7 1.5 1.6 1.8 1.7 1.7 1.8 2.0 2.0 2.2 1.3 1.0 2.1 3.1 3.5 2.0 0.9 1.5 2.1 3.0 1.8 2.0 2.1 2.3 2.1 0.6 0.4 0.0 0.4 1.2 1.9 2.1 1.4 0.8 0.4 0.2 0.0 0.0
0.9 1.1 1.6 2.4 2.7 1.9 1.4 1.7 1.5 1.5 1.7 2.5 2.6 2.3 2.7 2.3 2.8 2.3 2.5 4.2 3.8 3.2 2.7 3.2 3.3 4.1 3.6 6.4 1.8 3.8 6.5 2.2 1.1 0.1 0.1 0.4 0.3 0.3 0.7 1.3 1.8 0.5 0.4
1.2 0.3 0.0 0.2 0.3 0.9 1.8 1.5 1.5 1.3 1.0 1.9 2.1 1.3 1.6 1.9 1.8 2.5 3.0 3.5 3.1 3.5 3.5 5.4 6.6 8.3 8.9 10.2 10.1 6.6 4.9 5.1 3.9 1.9 0.9 0.0 0.1 0.1 0.1 0.1 1.0 1.6 2.0
1.3 1.7 2.2 1.9 1.5 1.7 0.6 0.7 1.1 1.4 2.4 2.3 1.2 1.2 1.0 0.8 0.9 1.1 1.6 1.4 1.4 2.6 4.2 4.6 5.4 7.2 9.5 7.5 6.8 5.8 7.3 8.6 10.9 4.9 4.3 4.3 0.3 0.9 0.2 0.1 0.4 0.5 0.8
5.7 4.3 5.6 3.7 4.7 4.9 2.9 1.4 1.1 1.5 1.7 1.5 0.7 0.8 0.9 0.5 0.1 0.2 0.0 0.0 0.1 0.3 0.8 1.5 3.2 3.1 5.1 5.2 4.8 5.7 4.4 3.6 3.6 2.6 2.3 8.3 3.4 3.4 1.3 0.1 0.3 0.3 0.2
9.0 9.0 9.6 10.2 9.7 11.6 7.4 10.7 12.0 7.2 7.0 7.6 7.5 5.7 2.3 1.2 1.6 0.5 0.8 0.5 0.1 0.2 0.1 0.3 0.3 0.3 1.8 1.1 0.2 0.3 4.6 4.8 6.5 5.3 2.8 13.4 8.9 11.4 3.5 1.9 1.3 0.6 0.4
17.8 16.7 14.2 12.4 12.5 9.0 7.0 4.7 6.4 10.7 16.3 15.6 7.9 8.2 8.3 10.8 8.5 6.2 3.2 1.7 1.6 1.3 1.6 3.8 0.7 2.6 2.5 2.6 2.9 7.5 13.6 14.8 13.8 12.6 7.3 8.5 9.6 14.6 15.7 17.3 9.0 5.2 4.1
14.8 14.9 15.9 15.5 13.1 14.7 9.3 8.7 7.5 7.0 8.5 8.8 9.7 10.5 7.5 7.5 8.3 6.8 3.1 6.7 5.9 5.4 7.4 7.8 10.2 9.1 8.3 8.1 4.3 5.7 5.0 14.6 14.0 19.6 14.0 17.8 15.3 16.2 25.7 16.7 17.2 14.0 10.6